DW0417 Weather Reports


time (UTC)temp
F
wind
direction
speed
knots
gust
knots
rain 1hr
in
rain 24hr
in
rain mn
in
humidity
%
barometer
mb
20260507130421 51 68 5.2 9.6 0.00 0.77 0.01 46 1014.6
20260507124939 52 348 2.6 7.8 0.00 0.77 0.01 45 1014.6
20260507123938 51 39 4.3 10.4 0.00 0.77 0.01 45 1014.5
20260507122939 51 343 7.0 11.3 0.00 0.77 0.01 44 1014.4
20260507121941 51 30 9.6 14.8 0.00 0.77 0.01 44 1014.3
20260507120940 50 64 7.8 13.0 0.00 0.77 0.01 45 1014.5
20260507115940 49 46 8.7 13.0 0.00 0.77 0.01 45 1014.4
20260507115418 48 49 10.4 13.9 0.00 0.77 0.01 49 1014.3
20260507113940 48 38 8.7 12.2 0.00 0.77 0.01 50 1014.4
20260507112934 48 351 7.8 13.0 0.00 0.77 0.01 50 1014.6
20260507111934 48 30 12.2 17.4 0.00 0.77 0.01 50 1014.3
20260507110933 48 55 12.2 18.2 0.00 0.77 0.01 49 1014.2
20260507105934 43 66 0.9 7.8 0.00 0.77 0.01 58 1014.5
20260507104933 44 284 0.9 1.7 0.00 0.77 0.01 59 1014.4
20260507103934 44 283 1.7 2.6 0.00 0.77 0.01 56 1014.4
20260507102934 46 264 0.9 2.6 0.00 0.77 0.01 53 1014.4
20260507101932 46 108 5.2 9.6 0.00 0.77 0.01 52 1014.3
20260507100932 46 73 4.3 8.7 0.00 0.77 0.01 53 1014.3
20260507095932 46 59 6.1 8.7 0.00 0.77 0.01 52 1014.5
20260507094933 47 75 5.2 9.6 0.00 0.77 0.01 50 1014.5
20260507093932 47 64 3.5 8.7 0.00 0.77 0.01 50 1014.8
20260507092934 47 82 7.8 12.2 0.00 0.77 0.01 48 1014.9
20260507092431 47 35 8.7 15.6 0.00 0.77 0.01 50 1014.9
20260507090933 45 35 7.8 14.8 0.00 0.77 0.01 54 1015.0
20260507085930 44 329 5.2 7.8 0.01 0.77 0.01 55 1015.0
20260507084931 44 346 3.5 8.7 0.01 0.77 0.01 55 1014.9
20260507083932 44 127 1.7 6.1 0.01 0.77 0.01 54 1014.6
20260507082930 46 101 4.3 9.6 0.01 0.77 0.01 50 1014.8
20260507081929 48 31 7.0 13.0 0.01 0.77 0.01 44 1014.8
20260507080929 48 349 2.6 8.7 0.01 0.77 0.01 42 1014.8
20260507075928 49 45 6.1 13.9 0.00 0.76 0.00 40 1014.9
20260507074928 49 85 7.0 13.9 0.00 0.76 0.00 41 1015.1
20260507073926 48 65 5.2 10.4 0.00 0.76 0.00 42 1015.2
20260507072926 46 101 6.1 13.0 0.00 0.76 0.00 46 1015.2
20260507071926 45 47 7.8 13.0 0.00 0.76 0.00 50 1015.3
20260507070926 44 46 6.1 13.9 0.00 0.76 0.00 53 1015.3
20260507065927 38 46 1.7 9.6 0.00 0.76 0.00 72 1015.5
20260507064926 34 311 0.0 4.3 0.00 0.76 0.00 85 1015.5
20260507064411 33 116 1.7 5.2 0.00 0.76 0.00 90 1015.8
20260507062923 32 326 2.6 5.2 0.00 0.76 0.00 91 1015.7
20260507061924 32 52 2.6 5.2 0.00 0.76 0.00 91 1016.0
20260507060917 32 91 2.6 5.2 0.00 0.76 0.00 91 1016.3
20260507055917 31 181 2.6 5.2 0.00 0.76 0.76 91 1016.3
20260507055357 31 108 0.9 5.2 0.00 0.76 0.76 91 1016.3
20260507053917 31 303 1.7 7.0 0.00 0.76 0.76 91 1016.3
20260507052916 31 145 0.0 0.9 0.00 0.76 0.76 91 1016.5
20260507051917 31 326 0.9 4.3 0.00 0.76 0.76 91 1016.5
20260507050918 31 40 0.9 3.5 0.00 0.76 0.76 91 1016.6
20260507045917 32 356 1.7 4.3 0.00 0.76 0.76 91 1016.6
20260507044916 31 335 0.9 3.5 0.00 0.76 0.76 90 1016.7
20260507043911 31 103 0.0 0.9 0.00 0.76 0.76 90 1016.9
20260507042910 31 103 0.0 1.7 0.00 0.76 0.76 90 1017.1
20260507041910 32 100 0.0 2.6 0.00 0.76 0.76 90 1017.0
20260507040910 32 86 0.9 3.5 0.00 0.76 0.76 90 1017.1
20260507035911 32 163 0.0 0.9 0.00 0.76 0.76 90 1017.3
20260507034910 33 163 0.0 0.9 0.00 0.76 0.76 90 1017.2
20260507033912 33 163 0.0 0.0 0.00 0.76 0.76 90 1017.3
20260507032911 33 163 0.0 1.7 0.00 0.76 0.76 89 1017.4
20260507031911 33 161 0.9 2.6 0.00 0.76 0.76 89 1017.3
20260507030905 34 76 0.0 0.9 0.00 0.76 0.76 88 1017.3
20260507025906 34 76 0.0 0.9 0.00 0.76 0.76 87 1017.2
20260507024903 34 76 0.0 0.9 0.00 0.76 0.76 87 1017.1
20260507023905 35 76 0.0 0.9 0.00 0.76 0.76 85 1017.1
20260507022904 36 76 0.0 0.9 0.00 0.76 0.76 83 1017.1
20260507022341 37 76 0.0 0.9 0.00 0.76 0.76 81 1017.0
20260507020901 38 76 0.0 1.7 0.00 0.76 0.76 78 1016.7
20260507015900 38 76 1.7 3.5 0.00 0.76 0.76 77 1016.7
20260507014858 39 345 1.7 4.3 0.00 0.76 0.76 76 1016.6
20260507014330 39 22 3.5 6.1 0.00 0.76 0.76 75 1016.5
20260507012855 40 342 4.3 8.7 0.01 0.76 0.76 73 1016.6
20260507011853 40 358 5.2 8.7 0.01 0.76 0.76 72 1016.6
20260507010855 41 20 5.2 8.7 0.01 0.76 0.76 71 1016.7
20260507005853 40 28 5.2 7.8 0.02 0.76 0.76 71 1016.9
20260507004851 41 340 6.1 8.7 0.02 0.76 0.76 71 1017.0
20260507003850 40 340 6.1 9.6 0.02 0.76 0.76 71 1017.0
20260507002844 41 13 5.2 9.6 0.02 0.75 0.75 70 1017.0
20260507001844 41 350 5.2 7.0 0.03 0.75 0.75 70 1017.1
20260507000844 41 347 6.1 9.6 0.03 0.75 0.75 69 1017.2
20260507000322 41 356 5.2 8.7 0.03 0.74 0.74 69 1017.4
20260506234844 40 322 5.2 9.6 0.05 0.74 0.74 67 1017.4
20260506233845 41 342 6.1 8.7 0.06 0.74 0.74 67 1017.4
20260506233334 40 331 6.1 8.7 0.06 0.73 0.73 69 1017.7
20260506231842 40 348 6.1 11.3 0.07 0.72 0.72 69 1017.7
20260506230841 40 0 6.1 10.4 0.10 0.72 0.72 69 1017.4
20260506225841 40 14 7.0 11.3 0.11 0.71 0.71 70 1017.6
20260506224843 40 358 7.0 10.4 0.11 0.69 0.70 68 1017.7
20260506223841 40 339 7.0 11.3 0.12 0.68 0.68 67 1017.7
20260506222842 40 16 6.1 10.4 0.13 0.67 0.67 66 1017.8
20260506221843 40 313 4.3 8.7 0.12 0.65 0.65 67 1017.9
20260506220841 40 347 4.3 7.8 0.11 0.62 0.63 66 1018.0
20260506215843 40 52 3.5 7.0 0.11 0.60 0.60 66 1018.1
20260506215804 40 326 4.3 8.7 0.12 0.59 0.58 66 1018.3
20260506213840 40 339 3.5 6.1 0.12 0.57 0.56 68 1018.5
20260506213322 40 295 3.5 7.0 0.14 0.55 0.55 67 1018.6
20260506212315 40 329 3.5 7.8 0.18 0.54 0.53 68 1018.7
20260506210837 41 51 4.3 7.8 0.22 0.52 0.51 67 1018.7
20260506205835 40 323 1.7 6.1 0.26 0.50 0.49 68 1018.8
20260506205741 41 22 0.9 4.3 0.27 0.47 0.46 68 1019.0
20260506204316 40 298 1.7 4.3 0.28 0.46 0.44 70 1019.1
20260506202833 42 292 0.9 2.6 0.27 0.42 0.41 64 1019.2
20260506201833 41 294 1.7 3.5 0.23 0.39 0.35 66 1019.3
20260506200833 42 307 0.9 3.5 0.19 0.35 0.29 69 1019.4
20260506195833 42 178 0.0 0.9 0.13 0.29 0.23 69 1019.4
20260506195325 40 206 0.9 2.6 0.11 0.27 0.19 70 1019.5
20260506193829 41 82 0.0 0.9 0.09 0.24 0.16 72 1019.7
20260506192827 42 82 0.0 0.9 0.07 0.22 0.14 73 1019.8
20260506191827 40 82 0.0 0.9 0.07 0.21 0.12 73 1019.9
20260506190829 38 82 0.0 0.9 0.06 0.20 0.10 76 1019.9
20260506185828 37 82 0.0 1.7 0.06 0.21 0.09 79 1019.9
20260506184829 37 86 0.0 0.0 0.05 0.20 0.08 77 1020.1
20260506183827 37 330 0.0 0.0 0.04 0.19 0.07 79 1020.1
20260506182828 38 326 0.0 0.0 0.04 0.18 0.06 77 1020.1
20260506181827 38 262 0.0 0.0 0.03 0.17 0.05 78 1020.4
20260506180823 36 268 0.0 0.0 0.02 0.17 0.04 82 1020.4
20260506175823 35 163 0.0 0.0 0.01 0.17 0.03 87 1020.4
20260506174821 35 178 0.0 0.0 0.02 0.19 0.03 89 1020.4
20260506173822 35 191 0.0 0.0 0.02 0.21 0.03 89 1020.4
20260506172822 35 251 0.0 0.0 0.01 0.22 0.02 89 1020.5
20260506171821 35 184 0.0 0.0 0.01 0.24 0.02 91 1020.2
20260506171304 34 162 0.0 0.0 0.01 0.25 0.02 91 1020.2
20260506165821 33 218 0.0 0.0 0.01 0.27 0.02 91 1020.2
20260506164821 33 221 0.0 0.0 0.01 0.27 0.01 91 1020.1
20260506163817 32 223 0.0 0.0 0.01 0.28 0.01 91 1020.0
20260506162816 32 202 0.0 0.0 0.01 0.30 0.01 91 1019.9
20260506161816 33 182 0.0 0.0 0.01 0.32 0.01 92 1019.5
20260506160815 33 221 0.0 0.0 0.01 0.33 0.01 92 1019.3
20260506160258 33 210 0.0 0.0 0.00 0.33 0.01 92 1019.3
20260506154815 32 203 0.0 0.0 0.00 0.33 0.00 92 1019.3
20260506153815 32 171 0.0 0.0 0.00 0.34 0.00 92 1019.3
20260506152815 32 211 0.0 0.0 0.00 0.35 0.00 92 1019.2
20260506152258 32 179 0.0 0.0 0.00 0.36 0.00 92 1019.1
20260506150816 32 194 0.0 0.0 0.00 0.37 0.00 92 1019.1
20260506145812 32 173 0.0 0.0 0.00 0.37 0.00 92 1019.0
20260506145300 32 193 0.0 0.0 0.00 0.38 0.00 92 1018.8
20260506143812 32 174 0.0 0.0 0.00 0.40 0.00 92 1018.8
20260506142814 32 205 0.0 0.0 0.00 0.40 0.00 92 1018.7
20260506142243 32 192 0.0 0.0 0.00 0.41 0.00 92 1018.6
20260506140812 32 175 0.0 0.0 0.00 0.42 0.00 92 1018.6
20260506135810 32 198 0.0 0.0 0.00 0.42 0.00 92 1018.5
20260506134808 32 207 0.0 0.0 0.00 0.43 0.00 92 1018.5
20260506133809 32 188 0.0 0.0 0.00 0.43 0.00 92 1018.4
20260506132810 32 191 0.0 0.0 0.00 0.43 0.00 92 1018.3
20260506131804 32 201 0.0 0.0 0.00 0.43 0.00 92 1018.0
20260506131248 32 194 0.0 0.0 0.00 0.43 0.00 92 1017.8